This is the latest recevied weather packets stored in our database for station/object KH6DH-13. If no packets are shown the sender has not sent any weather packets the latest 10 day(s).
| Time | Temp. | Humidity | Pressure | Rain* | Wind** | Luminosity | Snow |
|---|---|---|---|---|---|---|---|
| 1787853153 | 25° C | - | - | 0 mm | 1.79 m/s, 97° | - | - |
| 1787852552 | 25° C | - | - | 0 mm | 0.89 m/s, 143° | - | - |
| 1787851951 | 24.44° C | - | - | 0 mm | 0.45 m/s, 155° | - | - |
| 1787851350 | 24.44° C | - | - | 0 mm | 0.45 m/s, 25° | - | - |
| 1787850749 | 25° C | - | - | 0 mm | 0.45 m/s, 291° | - | - |
| 1787850148 | 25° C | - | - | 0 mm | 0.45 m/s, 51° | - | - |
| 1787849547 | 24.44° C | - | - | 0 mm | 1.79 m/s, 83° | - | - |
| 1787848946 | 24.44° C | - | - | 0 mm | 0.89 m/s, 18° | - | - |
| 1787848345 | 24.44° C | - | - | 0.25 mm | 0.89 m/s, 35° | - | - |
| 1787847744 | 24.44° C | - | - | 0.25 mm | 0.45 m/s, 169° | - | - |
| 1787847143 | 24.44° C | - | - | 0.25 mm | 0.89 m/s, 27° | - | - |
| 1787846542 | 24.44° C | - | - | 0.25 mm | 1.79 m/s, 103° | - | - |
| 1787845941 | 24.44° C | - | - | 0.25 mm | 0.45 m/s, 52° | - | - |
| 1787845340 | 25° C | - | - | 0.25 mm | 1.79 m/s, 10° | - | - |
| 1787844739 | 24.44° C | - | - | 0 mm | 1.34 m/s, 10° | - | - |
| 1787844138 | 24.44° C | - | - | 0 mm | 1.34 m/s, 21° | - | - |
| 1787843537 | 24.44° C | - | - | 0 mm | 0.45 m/s, 332° | - | - |
| 1787842936 | 24.44° C | - | - | 0 mm | 0 m/s | - | - |
| 1787842335 | 25° C | - | - | 0 mm | 0.45 m/s, 68° | - | - |
| 1787841734 | 24.44° C | - | - | 0 mm | 1.34 m/s, 113° | - | - |
| 1787841133 | 25° C | - | - | 0 mm | 0.45 m/s, 359° | - | - |
| 1787840532 | 25° C | - | - | 0 mm | 0.89 m/s, 3° | - | - |
| 1787839931 | 25° C | - | - | 0 mm | 1.34 m/s, 38° | - | - |
| 1787839330 | 25° C | - | - | 0 mm | 0 m/s | - | - |
| 1787838729 | 25° C | - | - | 0 mm | 1.34 m/s, 11° | - | - |
* Rain latest hour (hover to see other rain measurements)
** Current wind speed in m/s (hover to see current wind gust speed)